Patuxent River Naval Air Station,Trapnell Field Aiport Patuxent River US
ICAO: KNHK
IATA: NHK
Category: Medium
Scheduled Services: No

Elevation: 39 ft
TransAlt. 18000 ft.

Airport Communications:
APP/DEP:120.05
ATIS:27.62
CLNC DEL:135.2
GND:120.6
BASE OPS:30.255
PMSV METRO:35.62
LEESBURG RDO:117.6
TWR:123.7

KNHK Zoom In..

If you have problems with the map follow the link
https://www.worldairports.se/pages/airport.php?
ICAO=KNHK

Runways:

(A) RW 02 length 5021 ft width 75 ft
---- / hdg 18

(B) RW 06 length 11807 ft width 200 ft
---- / hdg 59

(C) RW 14 length 9742 ft width 200 ft
---- / hdg 136

(D) RW 20 length 5021 ft width 75 ft
---- / hdg 198

(E) RW 24 length 11807 ft width 200 ft
---- / hdg 239

(F) RW 32 length 9742 ft width 200 ft
---- / hdg 316

Location; KNHK
Day. 26 / Time. 00.52 Zulu
* Altimeter: 29.89
* Temperature: 05° c. 41°f.
* Wind from: 000° Speed 00 kn.
Dewpoint: 04° c.
Visibility: 10 Statute Miles.
Clouds: Few 6500 ft.

KNHK 260052Z AUTO 00000KT 10SM FEW065 05/04 A2989 RMK AO2 SLP120 T00500039 $


Wind - Calm.

 
 
jpsmedia worldairports.se 2020   terms of use